Preview of NWS' New Version of Forecast
This preview is not operational and should not be used for support decisions.

Regional Weather Roundup (RWR)

Issued by National Weather Service (NWS)

                            
000
ASUS45 KBOI 180110
RWRID 

IDAHO REGIONAL WEATHER ROUNDUP
NATIONAL WEATHER SERVICE BOISE ID
600 PM MST SUN FEB 17 2019

NOTE: "FAIR" INDICATES FEW OR NO CLOUDS BELOW 12000 FEET
WITH NO SIGNIFICANT WEATHER AND/OR OBSTRUCTIONS TO VISIBILITY

IDZ012-014-180200-
SOUTHWEST IDAHO

  
CITY           SKY/WX    TMP DP  RH WIND       PRES   REMARKS
BOISE          PTCLDY    34  26  72 NW8       29.95R WCI  27          
CALDWELL       CLOUDY    37  30  75 N3        29.98R                  
MOUNTAIN HOME  MOCLDY    35  35 100 N10         N/A  WCI  28          
$$

IDZ016-017-180200-
SOUTHCENTRAL IDAHO

  
CITY           SKY/WX    TMP DP  RH WIND       PRES   REMARKS
BURLEY         CLOUDY    27  19  72 NE8         N/A  WCI  19          
JEROME         CLOUDY    26  23  88 N5        29.90R WCI  20          
TWIN FALLS     CLOUDY    26  25  96 NW5       29.89R WCI  20          
$$

IDZ019>023-180200-
SOUTHEAST IDAHO

  
CITY           SKY/WX    TMP DP  RH WIND       PRES   REMARKS
IDAHO FALLS    PTCLDY    13  10  88 N3        29.88R                  
POCATELLO      PTCLDY    26  20  77 NE7       29.87R WCI  18          
REXBURG        PTCLDY    25  18  74 E3        29.87R                  
$$

IDZ006-010-011-018-031-032-180200-
CENTRAL IDAHO MOUNTAINS

  
CITY           SKY/WX    TMP DP  RH WIND       PRES   REMARKS
MCCALL         LGT SNOW  26  21  81 W7        29.85R WCI  18          
HAILEY         MOCLDY    21  16  79 N6        29.86R WCI  14          
STANLEY          N/A     15   7  70 CALM      29.80R                  
SALMON         MOCLDY    24  16  71 E5        29.90R WCI  18          
CHALLIS        MOCLDY    21  12  68 W3        29.84R                  
$$

IDZ002-004-006-007-026-180200-
NORTHERN IDAHO

  
CITY           SKY/WX    TMP DP  RH WIND       PRES   REMARKS
LEWISTON       CLOUDY    33  25  72 W6        30.11R WCI  28          
LOWELL           N/A     35  31  85 CALM      30.07R                  
COEUR D'ALENE  FLURRIES  22  15  75 N17       30.13R WCI   8          
MULLAN PASS    LGT SNOW   7   3  84 VRB3      29.89S VSB 3/4          
$$